Flag for Canada Weather past 2 weeks in Brantford, Ontario, Canada

55 °F


Feels Like: 51 °F
Forecast: N/A
Wind: 20 mph from Northwest

Location: Hamilton Airport

Current Time: Oct 9, 2015 at 5:13:16 PM

Latest Report: Oct 9, 2015 at 4:00 PM

Visibility: 15 mi

Pressure: 29.95 "Hg

Humidity: 72%

Dew point: 46 °F

Location of BrantfordLocation

Historic Weather in Brantford — Graph


Brantford temperature yesterday

Maximum temperature yesterday: 61 °F (at 1:00 PM)
Minimum temperature yesterday: 45 °F (at 3:00 AM)
Average temperature yesterday: 52 °F

Past Weeks' High & Low Weather Summary

High72 °F (Sep 27, 3:00 PM)100% (Sep 26, 11:00 PM)30.45 "Hg (Sep 26, 11:00 PM)
Low41 °F (Oct 1, 8:00 AM)47% (Oct 1, 10:00 PM)29.80 "Hg (Oct 9, 6:00 AM)
Average56 °F81%30.20 "Hg
* Reported Sep 24 4:00 PM — Oct 9 4:00 PM, Brantford, Weather by CustomWeather, © 2015

Note: Actual official high and low records may vary slightly from our data, if they occured in-between our weather recording intervals... More about our weather records


Brantford weather history for previous 24 hours

Time TempWeatherWind HumidityBarometerVisibility
4:00 PM
Fri, Oct 9
55 °FOvercast.20 mph72%29.95 "Hg15 mi
3:00 PM57 °FPartly sunny.14 mph77%29.91 "Hg15 mi
2:00 PM57 °FPartly sunny.16 mph77%29.91 "Hg15 mi
1:00 PM59 °FMore clouds than sun.13 mph77%29.89 "Hg15 mi
12:00 PM61 °FBroken clouds.14 mph77%29.87 "Hg15 mi
11:00 AM61 °FMostly cloudy.13 mph88%29.85 "Hg12 mi
10:00 AM61 °FFog.7 mph88%29.84 "Hg4 mi
9:00 AM59 °FFog.6 mph94%29.83 "Hg2 mi
8:00 AM57 °FFog.7 mph94%29.81 "Hg2 mi
7:00 AM55 °FFog.7 mph100%29.81 "Hg2 mi
6:00 AM54 °FLight rain. Fog.5 mph100%29.80 "Hg2 mi
5:00 AM52 °FLight rain. Fog.3 mph100%29.80 "Hg2 mi
4:00 AM52 °FLight rain. Fog.2 mph100%29.81 "Hg4 mi
3:00 AM54 °FLight rain. Mostly cloudy.2 mph94%29.83 "Hg7 mi
2:00 AM54 °FLight rain. Low clouds.9 mph94%29.85 "Hg8 mi
1:52 AM54 °FLight rain. Mostly cloudy.12 mph94%29.85 "Hg10 mi
1:00 AM54 °FLight rain. Mostly cloudy.6 mph94%29.86 "Hg15 mi
12:00 AM54 °FLight rain. Mostly cloudy.10 mph94%29.89 "Hg15 mi
11:00 PM
Thu, Oct 8
54 °FLight rain. Overcast.9 mph94%29.93 "Hg15 mi
10:00 PM55 °FLight rain. Overcast.10 mph88%29.95 "Hg15 mi
9:00 PM55 °FOvercast.9 mph82%29.97 "Hg15 mi
8:00 PM55 °FMostly cloudy.13 mph82%30.01 "Hg15 mi
7:00 PM55 °FPartly sunny.12 mph82%30.03 "Hg15 mi
6:00 PM55 °FBroken clouds.13 mph82%30.04 "Hg15 mi
5:00 PM57 °FPartly sunny.13 mph77%30.06 "Hg15 mi
Weather by CustomWeather, © 2015

See weather overviewHow to use our weather pages